Weather History for Longville, MN

Change the Weather History Date:

Wednesday, May 1, 2013

  Actual Average (KPWC) Record (KPWC)
Temperature  
Mean Temperature 36 °F -  
Max Temperature 41 °F 60 °F 77 °F (1999)
Min Temperature 30 °F 35 °F 23 °F (2004)
Degree Days  
Heating Degree Days 30    
Moisture  
Dew Point 24 °F    
Average Humidity 69    
Maximum Humidity 75    
Minimum Humidity 64    
Precipitation  
Precipitation 0.00 in - - ()
Sea Level Pressure  
Sea Level Pressure 30.14 in    
Wind  
Wind Speed 8 mph (WNW)    
Max Wind Speed 14 mph    
Max Gust Speed 18 mph    
Visibility 10 miles    
Events      
Averages and records for this station are not official NWS values.
T = Trace of Precipitation, MM = Missing Value Source: NWS Daily Summary

Daily Weather History Graph

Daily Weather History Graph

Search for Another Location

Airport:

Trip Planner

Search our weather history database for the weather conditions in past years. The results will help you decide how hot, cold, wet, or windy it might be!

Date:

Astronomy

May. 01, 2013 Rise Set
Actual Time 6:00 AM CDT 8:27 PM CDT
Civil Twilight 5:26 AM CDT 9:01 PM CDT
Nautical Twilight 4:44 AM CDT 9:44 PM CDT
Astronomical Twilight 3:56 AM CDT 10:33 PM CDT
Moon 1:38 AM CDT (5/1) 11:40 AM CDT (5/1)
Length of Visible Light 15h 34m
Length of Day
14h 26m
Waning Gibbous, 59% of the Moon is Illuminated
May 1
Waning Gibbous
May 2
Last Quarter
May 9
New
May 17
First Quarter
May 24
Full

Hourly Weather History & Observations

Time (CDT) Temp. Windchill Dew Point Humidity Pressure Visibility Wind Dir Wind Speed Gust Speed Precip Events Conditions
12:16 AM 41.0 °F 39.0 °F 30.2 °F 65% 29.97 in 10.0 mi WNW 3.5 mph - N/A   Clear
12:56 AM 39.2 °F 31.6 °F 30.2 °F 70% 29.97 in 10.0 mi WNW 12.7 mph 17.3 mph N/A   Scattered Clouds
1:16 AM 37.4 °F 28.9 °F 28.4 °F 70% 29.99 in 10.0 mi West 13.8 mph 17.3 mph N/A   Clear
1:36 AM 37.4 °F 30.8 °F 28.4 °F 70% 30.02 in 10.0 mi West 9.2 mph - N/A   Clear
1:56 AM 37.4 °F 29.8 °F 28.4 °F 70% 30.02 in 10.0 mi WNW 11.5 mph 16.1 mph N/A   Mostly Cloudy
2:16 AM 35.6 °F 28.6 °F 28.4 °F 75% 30.05 in 10.0 mi WNW 9.2 mph - N/A   Overcast
2:36 AM 35.6 °F 29.9 °F 26.6 °F 70% 30.05 in 10.0 mi WNW 6.9 mph - N/A   Overcast
2:56 AM 35.6 °F 29.2 °F 26.6 °F 70% 30.07 in 10.0 mi West 8.1 mph 16.1 mph N/A   Overcast
3:16 AM 35.6 °F 28.6 °F 26.6 °F 70% 30.07 in 10.0 mi West 9.2 mph 18.4 mph N/A   Overcast
3:36 AM 33.8 °F 26.4 °F 24.8 °F 70% 30.07 in 10.0 mi WNW 9.2 mph - N/A   Mostly Cloudy
4:16 AM 32.0 °F 25.6 °F 24.8 °F 75% 30.09 in 10.0 mi WNW 6.9 mph - N/A   Overcast
4:36 AM 32.0 °F 25.6 °F 24.8 °F 75% 30.08 in 10.0 mi WNW 6.9 mph - N/A   Overcast
4:56 AM 32.0 °F 26.4 °F 23.0 °F 69% 30.11 in 10.0 mi NW 5.8 mph - N/A   Overcast
5:16 AM 30.2 °F 24.3 °F 23.0 °F 75% 30.11 in 10.0 mi WNW 5.8 mph - N/A   Mostly Cloudy
5:36 AM 30.2 °F 21.3 °F 23.0 °F 75% 30.12 in 10.0 mi WNW 10.4 mph 16.1 mph N/A   Overcast
5:56 AM 30.2 °F 22.6 °F 21.2 °F 69% 30.13 in 10.0 mi WNW 8.1 mph - N/A   Overcast
6:16 AM 30.2 °F 22.6 °F 21.2 °F 69% 30.16 in 10.0 mi WNW 8.1 mph - N/A   Overcast
6:36 AM 30.2 °F 21.3 °F 19.4 °F 64% 30.16 in 10.0 mi NW 10.4 mph 18.4 mph N/A   Overcast
7:16 AM 30.2 °F 21.9 °F 21.2 °F 69% 30.19 in 10.0 mi WNW 9.2 mph - N/A   Overcast
7:36 AM 30.2 °F 21.3 °F 19.4 °F 64% 30.22 in 10.0 mi WNW 10.4 mph 18.4 mph N/A   Overcast
7:56 AM 30.2 °F 23.4 °F 19.4 °F 64% 30.25 in 10.0 mi WNW 6.9 mph 16.1 mph N/A   Overcast
8:16 AM 30.2 °F 21.9 °F 19.4 °F 64% 30.26 in 10.0 mi WNW 9.2 mph - N/A   Overcast
8:36 AM 30.2 °F 21.3 °F 19.4 °F 64% 30.27 in 10.0 mi West 10.4 mph - N/A   Overcast
8:56 AM 30.2 °F 21.9 °F 19.4 °F 64% 30.27 in 10.0 mi WNW 9.2 mph - N/A   Overcast
9:16 AM 32.0 °F 23.6 °F 21.2 °F 64% 30.27 in 10.0 mi West 10.4 mph - N/A   Mostly Cloudy
9:36 AM 30.2 °F 21.9 °F 21.2 °F 69% 30.28 in 10.0 mi WNW 9.2 mph - N/A   Mostly Cloudy
9:56 AM 32.0 °F 24.2 °F 21.2 °F 64% 30.28 in 10.0 mi WNW 9.2 mph - N/A   Overcast
10:16 AM 32.0 °F 25.6 °F 21.2 °F 64% 30.28 in 10.0 mi NW 6.9 mph - N/A   Overcast